Iron Mountain, MI

3:41 PM CST on December 13, 2017 (GMT -0600)
Ford

Weather History for KIMT - June, 2012

Change the Weather History Date:

Friday, June 22, 2012

  Actual Average Record
Temperature  
Mean Temperature 62 °F -  
Max Temperature 77 °F 76 °F 90 °F (1941)
Min Temperature 50 °F 51 °F 34 °F (1992)
Degree Days  
Heating Degree Days 2    
Growing Degree Days 12 (Base 50)    
Moisture  
Dew Point 53 °F    
Average Humidity 74    
Maximum Humidity 100    
Minimum Humidity 33    
Precipitation  
Precipitation 0.05 in - - ()
Sea Level Pressure  
Sea Level Pressure 29.98 in    
Wind  
Wind Speed 3 mph (East)    
Max Wind Speed 15 mph    
Max Gust Speed 29 mph    
Visibility 9 miles    
Events Rain , Thunderstorm    
Averages and records for this station are not official NWS values.
T = Trace of Precipitation, MM = Missing Value Source: NWS Daily Summary

Daily Weather History Graph

Daily Weather History Graph

Search for Another Location

Airport or City:

Trip Planner

Search our weather history database for the weather conditions in past years. The results will help you decide how hot, cold, wet, or windy it might be!

Date:

Astronomy

Jun. 22, 2012 Rise Set
Actual Time 5:02 AM CDT 8:46 PM CDT
Civil Twilight 4:24 AM CDT 9:24 PM CDT
Nautical Twilight 3:32 AM CDT 10:16 PM CDT
Astronomical Twilight 2:21 AM CDT 11:27 PM CDT
Moon 8:11 AM CDT (6/22) 10:31 PM CDT (6/22)
Length of Visible Light 17h 00m
Length of Day
15h 43m
Waxing Crescent, 9% of the Moon is Illuminated
Jun 22
Waxing Crescent
Jun 26
First Quarter
Jul 3
Full
Jul 10
Last Quarter
Jul 18
New

Hourly Weather History & Observations

Time (CDT) Temp. Dew Point Humidity Pressure Visibility Wind Dir Wind Speed Gust Speed Precip Events Conditions
12:54 AM 59.0 °F 52.0 °F 78% 29.93 in 10.0 mi Calm Calm - N/A   Overcast
2:54 AM 55.0 °F 51.1 °F 86% 29.95 in 10.0 mi Calm Calm - N/A   Clear
3:54 AM 51.1 °F 48.9 °F 92% 29.96 in 10.0 mi Calm Calm - N/A   Clear
4:54 AM 50.0 °F 48.9 °F 96% 29.96 in 2.0 mi Calm Calm - N/A   Clear
5:08 AM 50.0 °F 48.2 °F 94% 29.97 in 10.0 mi NNW 3.5 mph - N/A   Clear
5:54 AM 53.1 °F 50.0 °F 89% 29.97 in 10.0 mi Calm Calm - N/A   Clear
6:54 AM 57.9 °F 53.1 °F 84% 29.98 in 10.0 mi Calm Calm - N/A   Clear
7:54 AM 62.1 °F 54.0 °F 75% 29.98 in 10.0 mi NW 3.5 mph - N/A   Clear
8:54 AM 66.9 °F 53.1 °F 61% 29.98 in 10.0 mi Calm Calm - N/A   Clear
9:54 AM 71.1 °F 48.9 °F 45% 29.98 in 10.0 mi Variable 4.6 mph - N/A   Clear
10:54 AM 72.0 °F 45.0 °F 38% 29.98 in 10.0 mi Calm Calm - N/A   Clear
11:54 AM 73.9 °F 46.0 °F 37% 29.98 in 10.0 mi Variable 5.8 mph - N/A   Mostly Cloudy
12:54 PM 75.9 °F 45.0 °F 33% 29.96 in 10.0 mi WSW 9.2 mph - N/A   Scattered Clouds
1:52 PM 69.8 °F 51.8 °F 53% 29.97 in 6.0 mi NNW 15.0 mph 28.8 mph 0.01 in Rain , Thunderstorm Light Thunderstorms and Rain
1:54 PM 66.9 °F 52.0 °F 59% 29.98 in 5.0 mi North 12.7 mph 28.8 mph 0.01 in Rain , Thunderstorm Thunderstorms and Rain
2:12 PM 64.4 °F 55.4 °F 73% 29.98 in 10.0 mi NNE 9.2 mph - 0.01 in Rain Light Rain
2:35 PM 66.2 °F 53.6 °F 64% 29.98 in 10.0 mi Calm Calm - 0.01 in Thunderstorm Mostly Cloudy
2:50 PM 68.0 °F 55.4 °F 64% 29.97 in 10.0 mi Calm Calm - 0.01 in   Scattered Clouds
2:54 PM 68.0 °F 55.0 °F 63% 29.97 in 10.0 mi Calm Calm - 0.01 in   Partly Cloudy
3:54 PM 73.0 °F 52.0 °F 48% 29.98 in 10.0 mi ENE 8.1 mph - N/A Thunderstorm Mostly Cloudy
4:19 PM 66.2 °F 57.2 °F 73% 29.97 in 7.0 mi East 6.9 mph - 0.02 in Rain , Thunderstorm Rain
4:54 PM 64.0 °F 57.9 °F 80% 30.01 in 10.0 mi South 6.9 mph - 0.03 in Thunderstorm Overcast
5:19 PM 62.6 °F 57.2 °F 82% 30.00 in 10.0 mi SSW 8.1 mph - 0.00 in Rain Light Rain
5:54 PM 62.1 °F 57.0 °F 84% 29.99 in 10.0 mi SE 8.1 mph - 0.00 in Rain Light Rain
6:54 PM 64.0 °F 55.0 °F 73% 29.99 in 10.0 mi SSE 9.2 mph - 0.00 in   Clear
7:54 PM 63.0 °F 55.9 °F 78% 29.98 in 10.0 mi SSE 6.9 mph - N/A   Clear
8:54 PM 60.1 °F 55.0 °F 83% 29.98 in 10.0 mi Calm Calm - N/A   Clear
9:54 PM 55.9 °F 54.0 °F 93% 29.99 in 10.0 mi Calm Calm - N/A   Clear
10:54 PM 55.0 °F 54.0 °F 96% 29.99 in 10.0 mi Calm Calm - N/A   Clear
11:09 PM 55.4 °F 53.6 °F 94% 29.99 in 1.8 mi Calm Calm - N/A   Clear
11:16 PM 53.6 °F 53.6 °F 100% 29.99 in 4.0 mi Calm Calm - N/A   Clear
11:54 PM 53.1 °F 52.0 °F 96% 30.00 in 7.0 mi Calm Calm - N/A   Clear